Regional Weather Roundup
Issued by NWS Nashville, TN

Home | Current Version | Previous Version | Text Only | Print | Product List | Glossary On
Versions: 1 2 3 4 5 6 7 8 9 10 11 12 13 14 15 16 17 18 19 20 21 22 23 24 25 26 27 28 29 30 31 32 33 34 35 36 37 38 39 40 41 42 43 44 45 46 47 48 49 50
000
ASUS44 KOHX 241315
RWROHX
MIDDLE TENNESSEE HOURLY WEATHER ROUNDUP
NATIONAL WEATHER SERVICE NASHVILLE TN
800 AM CDT THU JUL 24 2014

NOTE: "FAIR" INDICATES FEW OR NO CLOUDS BELOW 12,000 FEET WITH
NO SIGNIFICANT WEATHER AND/OR OBSTRUCTIONS TO VISIBILITY.

* THESE REPORTS ARE NOT UNDER NWS QUALITY CONTROL AND MAY NOT
  REPORT WEATHER SUCH AS PRECIPITATION AND FOG.


TNZ005>011-023>034-057-059-062>066-078-080-241400
...NORTHERN MIDDLE TENNESSEE...

CITY           SKY/WX    TMP DP  RH WIND       PRES   REMARKS
CLARKSVILLE    CLOUDY    69  59  70 NW8       30.03R
CROSSVILLE     CLOUDY    72  66  81 W3        30.05R HAZE
GALLATIN       CLOUDY    72  69  90 NW7       30.02R
DICKSON          N/A     70  64  83 N7        30.03R
LEBANON        CLOUDY    72  70  93 W6        30.00R
LIVINGSTON     CLOUDY    68  68 100 W5        30.02R
NASHVILLE      CLOUDY    73  68  84 N9        30.02R
WEST NASHVILLE CLOUDY    72  72 100 NW6       30.01R
PORTLAND       CLOUDY    70  64  83 N7        30.01R
SMYRNA         MOSUNNY   75  72  91 N8        30.02R FOG
SPARTA         CLOUDY    72  72 100 CALM      30.01R
$$
TNZ056-058-060-061-075>077-079-093>097-241400
...SOUTHERN MIDDLE TENNESSEE...

CITY           SKY/WX    TMP DP  RH WIND       PRES   REMARKS
COLUMBIA       CLOUDY    73  70  88 CALM      30.01R
FAYETTEVILLE   CLOUDY    72  70  94 N6        30.02R
LEWISBURG      CLOUDY    71  69  93 CALM      30.02R VSB 1
MCMINNVILLE    PTSUNNY   72  72 100 NW3       30.02R
SHELBYVILLE    CLOUDY    72  72 100 N6        30.03R
TULLAHOMA      CLOUDY    72  70  94 N3        30.04R
WINCHESTER     CLOUDY    73  70  88 CALM      30.02R
$$


...KEY TO REMARKS...
VSB - VISIBILITY IN MILES
WCI - WIND CHILL INDEX
HX  - HEAT INDEX



USA.gov is the U.S. government's official web portal to all federal, state and local government web resources and services.